Time,TemperatureF,DewpointF,PressureIn,WindDirection,WindDirectionDegrees,WindSpeedMPH,WindSpeedGustMPH,Humidity,HourlyPrecipIn,Conditions,Clouds,dailyrainin,SoftwareType,DateUTC
2013-01-01 00:02:00,18.0,9.0,-100.00,NNW,335,9.0,14.0,68,0.00,,,-99.99,,2013-01-01 06:02:00,
2013-01-01 00:12:00,17.0,9.0,-100.00,NW,325,12.0,17.0,68,0.00,,,-99.99,,2013-01-01 06:12:00,
2013-01-01 00:22:00,17.0,9.0,-100.00,NNW,340,9.0,17.0,68,0.00,,,-99.99,,2013-01-01 06:22:00,
2013-01-01 00:32:00,17.0,9.0,-100.00,NNW,335,11.0,15.0,69,0.00,,,-99.99,,2013-01-01 06:32:00,
2013-01-01 00:42:00,17.0,8.0,-100.00,NNW,345,12.0,17.0,69,0.00,,,-99.99,,2013-01-01 06:42:00,
2013-01-01 00:52:00,16.0,9.0,-100.00,NNW,335,8.0,12.0,71,0.00,,,-99.99,,2013-01-01 06:52:00,
2013-01-01 01:02:00,16.0,9.0,-100.00,NNW,335,8.0,12.0,71,0.00,,,-99.99,,2013-01-01 07:02:00,
2013-01-01 01:12:00,16.0,8.0,-100.00,NW,325,7.0,12.0,72,0.00,,,-99.99,,2013-01-01 07:12:00,
2013-01-01 01:22:00,16.0,8.0,-100.00,NNW,330,9.0,13.0,72,0.00,,,-99.99,,2013-01-01 07:22:00,
2013-01-01 01:32:00,15.0,8.0,-100.00,NW,325,7.0,12.0,72,0.00,,,-99.99,,2013-01-01 07:32:00,
2013-01-01 01:42:00,15.0,8.0,-100.00,NNW,330,7.0,10.0,72,0.00,,,-99.99,,2013-01-01 07:42:00,
2013-01-01 01:52:00,15.0,7.0,-100.00,NNW,340,8.0,11.0,72,0.00,,,-99.99,,2013-01-01 07:52:00,
2013-01-01 02:02:00,15.0,7.0,-100.00,NNW,340,8.0,11.0,72,0.00,,,-99.99,,2013-01-01 08:02:00,
2013-01-01 02:11:00,14.0,7.0,-100.00,NW,325,6.0,10.0,73,0.00,,,-99.99,,2013-01-01 08:11:00,
2013-01-01 02:22:00,14.0,7.0,-100.00,NW,310,7.0,11.0,73,0.00,,,-99.99,,2013-01-01 08:22:00,
2013-01-01 02:32:00,13.0,7.0,-100.00,NW,305,8.0,12.0,74,0.00,,,-99.99,,2013-01-01 08:32:00,
2013-01-01 02:42:00,13.0,6.0,-100.00,NW,310,9.0,12.0,74,0.00,,,-99.99,,2013-01-01 08:42:00,
2013-01-01 02:53:00,12.0,6.0,-100.00,NW,320,6.0,11.0,74,0.00,,,-99.99,,2013-01-01 08:53:00,
2013-01-01 03:02:00,12.0,6.0,-100.00,NW,320,6.0,11.0,74,0.00,,,-99.99,,2013-01-01 09:02:00,
2013-01-01 03:12:00,12.0,6.0,-100.00,NW,315,7.0,10.0,74,0.00,,,-99.99,,2013-01-01 09:12:00,
2013-01-01 03:22:00,12.0,6.0,-100.00,NW,320,9.0,11.0,75,0.00,,,-99.99,,2013-01-01 09:22:00,
2013-01-01 03:32:00,11.0,5.0,-100.00,NW,320,6.0,11.0,75,0.00,,,-99.99,,2013-01-01 09:32:00,
2013-01-01 03:42:00,11.0,5.0,-100.00,NW,310,7.0,11.0,75,0.00,,,-99.99,,2013-01-01 09:42:00,
2013-01-01 03:52:00,11.0,5.0,-100.00,NW,325,7.0,12.0,75,0.00,,,-99.99,,2013-01-01 09:52:00,
2013-01-01 04:02:00,11.0,5.0,-100.00,NW,325,7.0,12.0,75,0.00,,,-99.99,,2013-01-01 10:02:00,
2013-01-01 04:12:00,10.0,4.0,-100.00,NNW,330,6.0,10.0,75,0.00,,,-99.99,,2013-01-01 10:12:00,
2013-01-01 04:22:00,10.0,4.0,-100.00,NW,320,6.0,11.0,75,0.00,,,-99.99,,2013-01-01 10:22:00,
2013-01-01 04:33:00,10.0,4.0,-100.00,NW,310,8.0,11.0,75,0.00,,,-99.99,,2013-01-01 10:33:00,
2013-01-01 04:42:00,10.0,4.0,-100.00,NNW,335,7.0,12.0,75,0.00,,,-99.99,,2013-01-01 10:42:00,
2013-01-01 04:52:00,9.0,3.0,-100.00,NW,310,7.0,9.0,75,0.00,,,-99.99,,2013-01-01 10:52:00,
2013-01-01 05:02:00,9.0,3.0,-100.00,NW,310,7.0,9.0,75,0.00,,,-99.99,,2013-01-01 11:02:00,
2013-01-01 05:12:00,9.0,3.0,-100.00,NW,325,7.0,12.0,75,0.00,,,-99.99,,2013-01-01 11:12:00,
2013-01-01 05:22:00,9.0,3.0,-100.00,NW,305,9.0,12.0,75,0.00,,,-99.99,,2013-01-01 11:22:00,
2013-01-01 05:32:00,9.0,3.0,-100.00,NW,315,7.0,13.0,75,0.00,,,-99.99,,2013-01-01 11:32:00,
2013-01-01 05:52:00,8.0,2.0,-100.00,NW,325,7.0,9.0,75,0.00,,,-99.99,,2013-01-01 11:52:00,
2013-01-01 06:02:00,8.0,2.0,-100.00,NW,325,7.0,9.0,75,0.00,,,-99.99,,2013-01-01 12:02:00,
2013-01-01 06:12:00,8.0,2.0,-100.00,NW,310,6.0,9.0,76,0.00,,,-99.99,,2013-01-01 12:12:00,
2013-01-01 06:22:00,8.0,2.0,-100.00,NW,320,6.0,10.0,76,0.00,,,-99.99,,2013-01-01 12:22:00,
2013-01-01 06:32:00,7.0,2.0,-100.00,NW,310,7.0,9.0,76,0.00,,,-99.99,,2013-01-01 12:32:00,
2013-01-01 06:42:00,7.0,1.0,-100.00,NW,310,7.0,9.0,77,0.00,,,-99.99,,2013-01-01 12:42:00,
2013-01-01 06:52:00,7.0,1.0,-100.00,NW,310,6.0,11.0,77,0.00,,,-99.99,,2013-01-01 12:52:00,
2013-01-01 07:02:00,7.0,1.0,-100.00,NW,310,6.0,11.0,77,0.00,,,-99.99,,2013-01-01 13:02:00,
2013-01-01 07:12:00,6.0,1.0,-100.00,NW,325,7.0,12.0,77,0.00,,,-99.99,,2013-01-01 13:12:00,
2013-01-01 07:22:00,6.0,0.0,-100.00,NW,325,6.0,12.0,77,0.00,,,-99.99,,2013-01-01 13:22:00,
2013-01-01 07:32:00,6.0,0.0,-100.00,NNW,330,6.0,10.0,77,0.00,,,-99.99,,2013-01-01 13:32:00,
2013-01-01 07:42:00,6.0,0.0,-100.00,NW,315,4.0,9.0,77,0.00,,,-99.99,,2013-01-01 13:42:00,
2013-01-01 07:52:00,6.0,0.0,-100.00,NNW,330,4.0,7.0,77,0.00,,,-99.99,,2013-01-01 13:52:00,
2013-01-01 08:02:00,6.0,0.0,-100.00,NNW,330,4.0,7.0,77,0.00,,,-99.99,,2013-01-01 14:02:00,
2013-01-01 08:12:00,6.0,0.0,-100.00,NNW,335,6.0,7.0,77,0.00,,,-99.99,,2013-01-01 14:12:00,
2013-01-01 08:22:00,6.0,0.0,-100.00,NW,325,7.0,11.0,77,0.00,,,-99.99,,2013-01-01 14:22:00,
2013-01-01 08:32:00,6.0,0.0,-100.00,NW,320,6.0,11.0,77,0.00,,,-99.99,,2013-01-01 14:32:00,
2013-01-01 08:42:00,6.0,1.0,-100.00,NW,320,6.0,11.0,77,0.00,,,-99.99,,2013-01-01 14:42:00,
2013-01-01 08:53:00,7.0,1.0,-100.00,NW,310,6.0,8.0,75,0.00,,,-99.99,,2013-01-01 14:53:00,
2013-01-01 09:03:00,7.0,1.0,-100.00,NW,310,6.0,8.0,75,0.00,,,-99.99,,2013-01-01 15:03:00,
2013-01-01 09:12:00,8.0,2.0,-100.00,NW,315,3.0,6.0,74,0.00,,,-99.99,,2013-01-01 15:12:00,
2013-01-01 09:22:00,8.0,2.0,-100.00,NW,310,5.0,6.0,74,0.00,,,-99.99,,2013-01-01 15:22:00,
2013-01-01 09:33:00,9.0,2.0,-100.00,NW,310,4.0,6.0,73,0.00,,,-99.99,,2013-01-01 15:33:00,
2013-01-01 09:42:00,10.0,3.0,-100.00,NW,315,4.0,5.0,72,0.00,,,-99.99,,2013-01-01 15:42:00,
2013-01-01 09:53:00,11.0,3.0,-100.00,West,280,2.0,4.0,71,0.00,,,-99.99,,2013-01-01 15:53:00,
2013-01-01 10:02:00,11.0,3.0,-100.00,West,280,2.0,4.0,71,0.00,,,-99.99,,2013-01-01 16:02:00,
2013-01-01 10:12:00,12.0,4.0,-100.00,SW,225,2.0,4.0,69,0.00,,,-99.99,,2013-01-01 16:12:00,
2013-01-01 10:22:00,12.0,4.0,-100.00,WSW,255,2.0,4.0,68,0.00,,,-99.99,,2013-01-01 16:22:00,
2013-01-01 10:33:00,13.0,4.0,-100.00,WSW,240,1.0,6.0,68,0.00,,,-99.99,,2013-01-01 16:33:00,
2013-01-01 10:42:00,14.0,5.0,-100.00,West,280,1.0,4.0,67,0.00,,,-99.99,,2013-01-01 16:42:00,
2013-01-01 10:52:00,14.0,5.0,-100.00,NW,310,3.0,6.0,65,0.00,,,-99.99,,2013-01-01 16:52:00,
2013-01-01 11:02:00,14.0,5.0,-100.00,NW,310,3.0,6.0,65,0.00,,,-99.99,,2013-01-01 17:02:00,
2013-01-01 11:12:00,14.0,5.0,-100.00,NW,305,4.0,6.0,64,0.00,,,-99.99,,2013-01-01 17:12:00,
2013-01-01 11:22:00,15.0,5.0,-100.00,NW,310,2.0,6.0,64,0.00,,,-99.99,,2013-01-01 17:22:00,
2013-01-01 11:33:00,15.0,5.0,-100.00,NNW,345,2.0,6.0,63,0.00,,,-99.99,,2013-01-01 17:33:00,
2013-01-01 11:42:00,16.0,5.0,-100.00,NW,305,4.0,5.0,62,0.00,,,-99.99,,2013-01-01 17:42:00,
2013-01-01 11:52:00,17.0,6.0,-100.00,NW,310,2.0,6.0,61,0.00,,,-99.99,,2013-01-01 17:52:00,
2013-01-01 12:03:00,17.0,6.0,-100.00,NW,310,2.0,6.0,61,0.00,,,-99.99,,2013-01-01 18:03:00,
2013-01-01 12:12:00,18.0,6.0,-100.00,WNW,290,4.0,7.0,58,0.00,,,-99.99,,2013-01-01 18:12:00,
2013-01-01 12:22:00,18.0,6.0,-100.00,WNW,290,6.0,9.0,58,0.00,,,-99.99,,2013-01-01 18:22:00,
2013-01-01 12:33:00,19.0,6.0,-100.00,WNW,290,6.0,7.0,56,0.00,,,-99.99,,2013-01-01 18:33:00,
2013-01-01 12:42:00,20.0,6.0,-100.00,NW,320,3.0,6.0,54,0.00,,,-99.99,,2013-01-01 18:42:00,
2013-01-01 12:52:00,21.0,6.0,-100.00,WNW,290,4.0,7.0,52,0.00,,,-99.99,,2013-01-01 18:52:00,
2013-01-01 13:02:00,21.0,6.0,-100.00,WNW,290,4.0,7.0,52,0.00,,,-99.99,,2013-01-01 19:02:00,
2013-01-01 13:12:00,21.0,6.0,-100.00,WSW,255,4.0,7.0,50,0.00,,,-99.99,,2013-01-01 19:12:00,
2013-01-01 13:22:00,22.0,6.0,-100.00,WNW,295,4.0,7.0,50,0.00,,,-99.99,,2013-01-01 19:22:00,
2013-01-01 13:32:00,21.0,6.0,-100.00,WNW,290,4.0,8.0,49,0.00,,,-99.99,,2013-01-01 19:32:00,
2013-01-01 13:42:00,22.0,6.0,-100.00,WSW,255,4.0,7.0,48,0.00,,,-99.99,,2013-01-01 19:42:00,
2013-01-01 13:52:00,23.0,6.0,-100.00,West,275,4.0,6.0,47,0.00,,,-99.99,,2013-01-01 19:52:00,
2013-01-01 14:02:00,23.0,6.0,-100.00,West,275,4.0,6.0,47,0.00,,,-99.99,,2013-01-01 20:02:00,
2013-01-01 14:12:00,23.0,6.0,-100.00,NW,320,6.0,9.0,46,0.00,,,-99.99,,2013-01-01 20:12:00,
2013-01-01 14:22:00,24.0,6.0,-100.00,WNW,295,6.0,9.0,46,0.00,,,-99.99,,2013-01-01 20:22:00,
2013-01-01 14:32:00,23.0,6.0,-100.00,WNW,290,6.0,9.0,46,0.00,,,-99.99,,2013-01-01 20:32:00,
2013-01-01 14:42:00,24.0,5.0,-100.00,WNW,300,7.0,9.0,45,0.00,,,-99.99,,2013-01-01 20:42:00,
2013-01-01 14:52:00,23.0,5.0,-100.00,WNW,285,6.0,10.0,45,0.00,,,-99.99,,2013-01-01 20:52:00,
2013-01-01 15:03:00,23.0,5.0,-100.00,WNW,285,6.0,10.0,45,0.00,,,-99.99,,2013-01-01 21:03:00,
2013-01-01 15:12:00,24.0,6.0,-100.00,NW,325,4.0,9.0,46,0.00,,,-99.99,,2013-01-01 21:12:00,
2013-01-01 15:22:00,24.0,6.0,-100.00,NW,315,7.0,9.0,45,0.00,,,-99.99,,2013-01-01 21:22:00,
2013-01-01 15:33:00,24.0,6.0,-100.00,NW,315,6.0,9.0,45,0.00,,,-99.99,,2013-01-01 21:33:00,
2013-01-01 15:42:00,23.0,6.0,-100.00,NW,315,7.0,9.0,45,0.00,,,-99.99,,2013-01-01 21:42:00,
2013-01-01 15:52:00,23.0,5.0,-100.00,NW,305,6.0,9.0,46,0.00,,,-99.99,,2013-01-01 21:52:00,
2013-01-01 16:02:00,23.0,5.0,-100.00,NW,305,6.0,9.0,46,0.00,,,-99.99,,2013-01-01 22:02:00,
2013-01-01 16:12:00,22.0,5.0,-100.00,NW,310,6.0,10.0,46,0.00,,,-99.99,,2013-01-01 22:12:00,
2013-01-01 16:22:00,21.0,5.0,-100.00,NW,310,7.0,9.0,47,0.00,,,-99.99,,2013-01-01 22:22:00,
2013-01-01 16:33:00,21.0,4.0,-100.00,NW,325,7.0,9.0,48,0.00,,,-99.99,,2013-01-01 22:33:00,
2013-01-01 16:42:00,20.0,4.0,-100.00,NW,320,5.0,9.0,49,0.00,,,-99.99,,2013-01-01 22:42:00,
2013-01-01 16:52:00,20.0,4.0,-100.00,NW,310,3.0,6.0,50,0.00,,,-99.99,,2013-01-01 22:52:00,
2013-01-01 17:02:00,20.0,4.0,-100.00,NW,310,3.0,6.0,50,0.00,,,-99.99,,2013-01-01 23:02:00,
2013-01-01 17:12:00,19.0,4.0,-100.00,WNW,300,4.0,4.0,51,0.00,,,-99.99,,2013-01-01 23:12:00,
2013-01-01 17:22:00,19.0,4.0,-100.00,NW,310,4.0,5.0,51,0.00,,,-99.99,,2013-01-01 23:22:00,
2013-01-01 17:32:00,19.0,4.0,-100.00,NNW,330,2.0,4.0,52,0.00,,,-99.99,,2013-01-01 23:32:00,
2013-01-01 17:42:00,18.0,4.0,-100.00,NNW,330,2.0,5.0,53,0.00,,,-99.99,,2013-01-01 23:42:00,
2013-01-01 17:52:00,18.0,4.0,-100.00,NW,315,3.0,5.0,53,0.00,,,-99.99,,2013-01-01 23:52:00,
2013-01-01 18:02:00,18.0,4.0,-100.00,NW,315,3.0,5.0,53,0.00,,,-99.99,,2013-01-02 00:02:00,
2013-01-01 18:12:00,18.0,4.0,-100.00,NNW,330,3.0,4.0,55,0.00,,,-99.99,,2013-01-02 00:12:00,
2013-01-01 18:22:00,18.0,4.0,-100.00,NW,325,2.0,5.0,55,0.00,,,-99.99,,2013-01-02 00:22:00,
2013-01-01 18:32:00,17.0,4.0,-100.00,NNW,345,4.0,5.0,56,0.00,,,-99.99,,2013-01-02 00:32:00,
2013-01-01 18:42:00,17.0,4.0,-100.00,NNW,340,2.0,5.0,57,0.00,,,-99.99,,2013-01-02 00:42:00,
2013-01-01 18:52:00,16.0,4.0,-100.00,NW,310,2.0,3.0,58,0.00,,,-99.99,,2013-01-02 00:52:00,
2013-01-01 19:02:00,16.0,4.0,-100.00,NW,310,2.0,3.0,58,0.00,,,-99.99,,2013-01-02 01:02:00,
2013-01-01 19:12:00,16.0,4.0,-100.00,NNW,335,1.0,3.0,59,0.00,,,-99.99,,2013-01-02 01:12:00,
2013-01-01 19:22:00,16.0,5.0,-100.00,NW,305,0.0,2.0,60,0.00,,,-99.99,,2013-01-02 01:22:00,
2013-01-01 19:32:00,16.0,5.0,-100.00,West,270,2.0,2.0,61,0.00,,,-99.99,,2013-01-02 01:32:00,
2013-01-01 19:42:00,15.0,5.0,-100.00,WNW,300,2.0,2.0,63,0.00,,,-99.99,,2013-01-02 01:42:00,
2013-01-01 19:52:00,15.0,5.0,-100.00,WNW,295,1.0,2.0,65,0.00,,,-99.99,,2013-01-02 01:52:00,
2013-01-01 20:02:00,15.0,5.0,-100.00,WNW,295,1.0,2.0,65,0.00,,,-99.99,,2013-01-02 02:02:00,
2013-01-01 20:12:00,14.0,5.0,-100.00,NW,320,1.0,2.0,67,0.00,,,-99.99,,2013-01-02 02:12:00,
2013-01-01 20:22:00,14.0,6.0,-100.00,NW,310,1.0,2.0,68,0.00,,,-99.99,,2013-01-02 02:22:00,
2013-01-01 20:32:00,14.0,6.0,-100.00,NW,310,1.0,2.0,69,0.00,,,-99.99,,2013-01-02 02:32:00,
2013-01-01 20:42:00,14.0,6.0,-100.00,NW,310,0.0,1.0,71,0.00,,,-99.99,,2013-01-02 02:42:00,
2013-01-01 20:52:00,14.0,7.0,-100.00,WSW,245,1.0,1.0,74,0.00,,,-99.99,,2013-01-02 02:52:00,
2013-01-01 21:02:00,14.0,7.0,-100.00,WSW,245,1.0,1.0,74,0.00,,,-99.99,,2013-01-02 03:02:00,
2013-01-01 21:12:00,13.0,7.0,-100.00,SW,235,0.0,1.0,75,0.00,,,-99.99,,2013-01-02 03:12:00,
2013-01-01 21:22:00,13.0,7.0,-100.00,SW,215,1.0,2.0,76,0.00,,,-99.99,,2013-01-02 03:22:00,
2013-01-01 21:32:00,13.0,7.0,-100.00,SSW,200,1.0,2.0,76,0.00,,,-99.99,,2013-01-02 03:32:00,
2013-01-01 21:42:00,13.0,7.0,-100.00,South,190,0.0,1.0,77,0.00,,,-99.99,,2013-01-02 03:42:00,
2013-01-01 21:52:00,12.0,7.0,-100.00,SSE,150,2.0,2.0,77,0.00,,,-99.99,,2013-01-02 03:52:00,
2013-01-01 22:02:00,12.0,7.0,-100.00,SSE,150,2.0,2.0,77,0.00,,,-99.99,,2013-01-02 04:02:00,
2013-01-01 22:12:00,12.0,7.0,-100.00,SE,130,0.0,3.0,78,0.00,,,-99.99,,2013-01-02 04:12:00,
2013-01-01 22:22:00,12.0,6.0,-100.00,SE,130,0.0,1.0,78,0.00,,,-99.99,,2013-01-02 04:22:00,
2013-01-01 22:32:00,12.0,7.0,-100.00,SSE,160,0.0,1.0,78,0.00,,,-99.99,,2013-01-02 04:32:00,
2013-01-01 22:42:00,12.0,7.0,-100.00,SSE,155,2.0,2.0,79,0.00,,,-99.99,,2013-01-02 04:42:00,
2013-01-01 22:52:00,11.0,7.0,-100.00,SE,145,1.0,2.0,80,0.00,,,-99.99,,2013-01-02 04:52:00,
2013-01-01 23:03:00,11.0,7.0,-100.00,SE,145,1.0,2.0,80,0.00,,,-99.99,,2013-01-02 05:03:00,
2013-01-01 23:12:00,11.0,7.0,-100.00,SSE,160,2.0,3.0,81,0.00,,,-99.99,,2013-01-02 05:12:00,
2013-01-01 23:22:00,11.0,7.0,-100.00,SE,135,2.0,3.0,81,0.00,,,-99.99,,2013-01-02 05:22:00,
2013-01-01 23:33:00,11.0,7.0,-100.00,SSE,150,2.0,3.0,82,0.00,,,-99.99,,2013-01-02 05:33:00,
2013-01-01 23:42:00,11.0,7.0,-100.00,SE,140,2.0,2.0,83,0.00,,,-99.99,,2013-01-02 05:42:00,
2013-01-01 23:52:00,11.0,7.0,-100.00,SE,125,2.0,4.0,84,0.00,,,-99.99,,2013-01-02 05:52:00,